Location: Chandrammap?lem
(16.9200°N, 81.0051°E)
Time: 04:13:52
(UTC+00:00)

NOAA 6 - Pass Details

Date: 29 May 2024
Orbit: 770 x 783 km, 98.6° (Epoch: 21 June)

Event Time Altitude Azimuth Distance (km) Brightness Sun altitude
Rises 13:23:04 0° 171° (S) 3,232 6.9 -4.8°
Reaches altitude 10° 13:25:23 10° 173° (S) 2,307 6.2 -5.3°
Maximum altitude 13:30:27 73° 258° (WSW) 808 4.3 -6.4°
Drops below altitude 10° 13:35:33 10° 343° (NNW) 2,319 7.2 -7.5°
Sets 13:37:52 0° 345° (NNW) 3,249 7.9 -8.0°
